Weather in Krasnoyarskiy

Russia / Orenburg Oblast     51°58′02″N   59°54′01″E
temp.,
°C
wind,
m/s
gust,
m/s
humid.,
%
clouds,
%
prec.,
mm/h
press.,
hPa
HPBL,
m
23 october, sat
sat2323:00+8wsw91959100 0.0 1013655
02:00+7wsw1020622 0.0 1014615
05:00+6wsw918665 0.0 1015508
08:00+6wsw8177316 0.0 1015463
11:00+10wsw91664100 0.0 1016710
14:00+12wsw91460100 0.0 1017925
17:00+12wsw81464100 0.0 1017809
20:00+10wsw61468100 0.0 1019557
24 october, sun
sun2423:00+9sw61374100 0.0 1019433
02:00+9sw61290100 0.0 1019345
05:00+8ssw51194100 0.0 1019287
08:00+8ssw61292100 0.0 1018343
11:00+10ssw9154280 0.0 1016716
14:00+13sw10163879 0.0 10141291
17:00+12sw9144383 0.0 1014992
20:00+11w61064100 0.0 1015645
25 october, mon
mon2523:00+9wsw4984100 0.1 1015687
02:00+9wsw3690100 0.9 1015445
05:00+8n2285100 1.3 1015180
08:00+7ene2386100 1.3 1015177
11:00+6ene3392100 5.7 1015162
14:00+7e4486100 0.9 1013269
17:00+8ne1164100 1.2 101127
20:00+5n7792100 0.1 1013469
26 october, tue
tue2623:00+3nw4796100 1.1 1014565
02:00+4nw687798 0.2 1014913
05:00+2nw611825 0.2 1016592
08:00+2n7117169 0.0 1018858
11:00+2n79490 0.0 1022968
14:00+3n563590 0.0 10231165
17:00+3nnw3537100 0.0 1024795
20:00+1wnw334818 0.0 102640
27 october, wed
wed2723:000w35585 0.0 102787
02:00−1wsw376262 0.0 1028167
05:000wsw5105752 0.0 1027332
08:00−1wsw6116023 0.0 1028354
11:00+2wsw8124961 0.0 1028688
14:00+4wsw8114836 0.0 1026833
17:00+4wsw7115329 0.0 1026618
20:00+2wsw6126398 0.0 1027355